Regional Weather Roundup
Issued by NWS

Home | Current Version | Previous Version | Text Only | Print | Product List | Glossary Off
Versions: 1 2 3 4 5 6 7 8 9 10 11 12 13 14 15 16 17 18 19 20 21 22 23 24 25 26 27 28 29 30 31 32 33 34 35 36 37 38 39 40 41 42 43 44 45 46 47 48 49 50

000
ASUS43 KBIS 200902
RWRND

NORTH DAKOTA REGIONAL WEATHER ROUNDUP
NATIONAL WEATHER SERVICE BISMARCK ND
400 AM CDT SUN AUG 20 2017

NOTE: "FAIR" INDICATES FEW OR NO CLOUDS BELOW 12,000 FEET WITH NO
SIGNIFICANT WEATHER AND/OR OBSTRUCTIONS TO VISIBILITY.


NDZ001>003-009>011-017-201000-
NORTHWEST NORTH DAKOTA

CITY           SKY/WX    TMP DP  RH WIND       PRES   REMARKS
WILLISTON      CLOUDY    52  40  63 E3        30.01R
MINOT          MOCLDY    58  41  53 W12       29.95R
MINOT AFB      PTCLDY    54  42  63 NW9       29.94R
$$

NDZ018>021-031>035-040>046-201000-
SOUTHWEST NORTH DAKOTA

CITY           SKY/WX    TMP DP  RH WIND       PRES   REMARKS
BISMARCK       MOCLDY    63  47  55 NW6       29.96R
DICKINSON      CLOUDY    56  44  64 NW5       30.01R
GARRISON         N/A     49  46  90 N9        29.96R
HETTINGER ARPT CLOUDY    57  43  59 NE3       30.02F
$$

NDZ004>008-012>016-024-026-027-054-201000-
NORTHEAST NORTH DAKOTA

CITY           SKY/WX    TMP DP  RH WIND       PRES   REMARKS
GRAND FORKS    CLEAR     65  54  67 NW12      29.78R
GRND FRKS AFB  CLEAR     63  51  64 NW9       29.80R
DEVILS LAKE    CLEAR     59  52  77 NW13      29.89R
$$

NDZ022-023-025-028>030-036>039-047>053-201000-
SOUTHEAST NORTH DAKOTA

CITY           SKY/WX    TMP DP  RH WIND       PRES   REMARKS
FARGO          PTCLDY    66  61  84 NW10      29.80R
JAMESTOWN      CLEAR     61  53  75 NW10      29.87R
$$




USA.gov is the U.S. government's official web portal to all federal, state and local government web resources and services.